sat.trackr.live / text

‹ back to catalog

STARLINK-34588

NORAD 64729 · 2025-144F

PAYLOAD ACTIVE UNKNOWN

§ Identity

Operator
Country
US
Launch date
2025-07-02
Launch site
AFETR
Launch vehicle
Mass (kg)
RCS (m²)

Purposes: comms

External: N2YO · Heavens-Above · Gunter

§ Orbital elements

Epoch: 2026-09-20T12:49:36.979392Z

Period
93.85 min
Inclination
53.1618°
Eccentricity
0.0001347
Mean motion
15.34399119 rev/d
Perigee alt
461.8 km
Apogee alt
463.6 km
Semi-major
6,840.8 km
B*
2.3974e-4
RAAN
355.2956°
Arg perigee
108.4285°
Mean anomaly
251.6864°
Rev number
6,955

§ Raw data

STARLINK-345881 64729U 25144F   26263.53445578  .00007732  00000+0  23974-3 0  99902 64729  53.1618 355.2956 0001347 108.4285 251.6864 15.34399119 69554

JSON: /api/v1/satellites/64729 · /tle

For live sub-satellite position, see the globe view (requires WebGL).

§ Visibility from observer

Set your observer location to see the next 7 days of passes ≥ 10°. The values pass through the URL so the page stays shareable.

No JS? Fill the form by hand. The geolocation button needs JavaScript.